Regional Weather Roundup
Issued by NWS Jackson, KY

Home | Current Version | Previous Version | Text Only | Print | Product List | Glossary Off
Versions: 1 2 3 4 5 6 7 8 9 10 11 12 13 14 15 16 17 18 19 20 21 22 23 24 25 26 27

000
ASUS43 KJKL 230010
RWRJKL

EAST KENTUCKY HOURLY WEATHER ROUNDUP
NATIONAL WEATHER SERVICE JACKSON KY
800 PM EDT THU JUN 22 2017

NOTE: "FAIR" INDICATES FEW OR NO CLOUDS BELOW 12,000 FEET WITH
NO SIGNIFICANT WEATHER AND/OR OBSTRUCTIONS TO VISIBILITY.

* THESE REPORTS ARE NOT UNDER NWS QUALITY CONTROL AND MAY NOT
  REPORT WEATHER SUCH AS PRECIPITATION AND FOG.

KYZ079-080-083-085-087-088-110-112-115-119-120-230100
...EASTERN KENTUCKY...

CITY           SKY/WX    TMP DP  RH WIND       PRES   REMARKS
JACKSON        RAIN      70  68  93 SE5       30.00F FOG
6HR MIN TEMP:  70; 6HR MAX TEMP:  71; 6HR PCP:  0.30;

LONDON         CLOUDY    72  68  87 S7        29.97S
6HR MIN TEMP:  71; 6HR MAX TEMP:  75; 6HR PCP:  0.20;

SOMERSET*      CLOUDY    70  70 100 CALM      29.96F
MONTICELLO*    CLOUDY    75  72  90 NE7       29.96F
6HR MIN TEMP:  71; 6HR MAX TEMP:  75; 6HR PCP:  0.41;

WILLIAMSBURG*  CLOUDY    72  72 100 SE3       29.98S
MIDDLESBORO*   CLOUDY    73  71  93 CALM      30.01S
6HR MIN TEMP:  73; 6HR MAX TEMP:  75; 6HR PCP:  0.06;

HARLAN APT*    CLOUDY    70  64  83 CALM      30.02F
PIKE CO APT*   DRIZZLE   71  71 100 CALM      30.04R
BIG SANDY APT* CLOUDY    72  72 100 S5        30.02S
6HR MIN TEMP:  72; 6HR MAX TEMP:  77;

MOREHEAD APT*  LGT RAIN  72  68  88 VRB6      29.99F
$$

KYZ035-036-041-042-044-050-067-078-099-230100
...CENTRAL KENTUCKY...

CITY           SKY/WX    TMP DP  RH WIND       PRES   REMARKS
MT STERLING*   HVY RAIN  70  68  94 S5        29.98F
FLEMING/MASON* DRIZZLE   71  69  95 S6        29.97F
DANVILLE*      LGT RAIN  70  68  94 S7        29.95S
LEXINGTON      RAIN      70  67  90 SE6       29.95S FOG
6HR MIN TEMP:  70; 6HR MAX TEMP:  74; 6HR PCP:  0.41;

FRANKFORT      HVY RAIN  71  67  87 SE12      29.91F FOG
6HR MIN TEMP:  71; 6HR MAX TEMP:  76; 6HR PCP:  0.48;

LOUISVILLE     LGT RAIN  72  71  97 SE9       29.88F
6HR MIN TEMP:  72; 6HR MAX TEMP:  78; 6HR PCP:  0.43;

LEBANON*       CLOUDY    72  72 100 SE12      29.91F
GLASGOW*       CLOUDY    76  76  98 S9G17     29.89F
BOWLING GREEN  PTSUNNY   79  75  87 S12       29.86F
6HR MIN TEMP:  72; 6HR MAX TEMP:  80; 6HR PCP:  0.29;

$$

KYZ091>093-OHZ055-061-077-WVZ005-015-034-035-042-230100
...SOUTHERN OHIO/WEST VIRGINIA...

CITY           SKY/WX    TMP DP  RH WIND       PRES   REMARKS
COVINGTON      LGT RAIN  72  70  93 S10       29.91F
COLUMBUS       CLOUDY    81  68  64 SW14      29.91S
DAYTON         CLOUDY    77  66  68 SW16G25   29.90F
WILMINGTON     CLOUDY    74  68  81 S14       29.92F
HUNTINGTON     LGT RAIN  72  70  93 SE3       29.99F
CHARLESTON     CLOUDY    75  68  78 SW5       30.01R
PINEVILLE*     LGT RAIN  72  70  93 MISG      30.11S
BECKLEY        LGT RAIN  70  66  87 SW5       30.10R
BLUEFIELD      LGT RAIN  68  63  84 SW7       30.13S
LOGAN CO APT*  LGT RAIN  72  70  94 CALM      30.04S
$$

VAZ002-007-008-TNZ017-027-036-066-071-230100
...SOUTHWEST VIRGINIA/EAST TENNESSEE...

CITY           SKY/WX    TMP DP  RH WIND       PRES   REMARKS
WISE*          CLOUDY    68  68 100 CALM      30.10F
JONESVILLE*    MOCLDY    72  70  94 CALM      30.04F
ABINGDON*      CLOUDY    73  71  95 E5        30.09F
BRISTOL        CLOUDY    72  71  97 E3        30.05F
MORRISTOWN*    CLOUDY    73  72  94 CALM      30.01S
SEVIERVILLE*   MOCLDY    73  72  94 CALM      29.99S
KNOXVILLE      LGT RAIN  73  71  93 E3        29.98F FOG
LAFOLLETTE*    CLOUDY    72  70  94 CALM      30.03F FOG
OAK RIDGE      CLOUDY    74  71  91 CALM      30.00S
CROSSVILLE     CLOUDY    72  69  90 VRB5      30.01R
NASHVILLE      CLOUDY    79  74  84 S10       29.89S
$$

...KEY TO REMARKS...
VSB - VISIBILITY IN MILES
WCI - WIND CHILL INDEX
HX  - HEAT INDEX

$$




USA.gov is the U.S. government's official web portal to all federal, state and local government web resources and services.